Temp
-8 -8 -8 -8 -8 -9 -9 -10 -10 -10 -10 -11 -11 -11 -11 -12 -12 -12 -12 -13 -15 -17 -18 -18 -18 -18 -18 -18 -18 -19 -19 -19 -19 -19 -20 -20 -20 -20 -21 -21 -20 -20 -21 -21
-8 -8 -8 -8 -9 -9 -10 -10 -10 -11 -11 -11 -11 -12 -11 -12 -12 -12 -13 -14 -17 -17 -18 -18 -18 -18 -18 -18 -18 -18 -19 -19 -19 -20 -20 -20 -21 -21 -21 -21 -21 -21 -22 -22
-8 -8 -8 -9 -9 -9 -10 -10 -10 -11 -11 -11 -11 -11 -11 -12 -12 -13 -13 -15 -17 -17 -18 -18 -18 -18 -18 -18 -18 -19 -19 -19 -20 -20 -20 -21 -21 -21 -21 -22 -22 -23 -24 -24
-8 -8 -8 -9 -9 -9 -10 -10 -11 -11 -11 -11 -11 -11 -12 -12 -13 -13 -14 -15 -17 -17 -18 -18 -18 -18 -18 -18 -18 -19 -19 -19 -20 -20 -21 -21 -21 -21 -22 -23 -24 -24 -25 -25
-8 -8 -8 -9 -9 -10 -10 -10 -11 -11 -11 -11 -11 -12 -12 -13 -13 -13 -14 -16 -17 -17 -18 -18 -18 -18 -18 -18 -19 -19 -19 -19 -20 -21 -21 -21 -22 -22 -23 -24 -24 -25 -25 -26
-8 -8 -8 -9 -9 -10 -10 -11 -11 -11 -11 -12 -12 -12 -12 -13 -13 -14 -14 -16 -17 -17 -18 -18 -18 -18 -18 -18 -19 -19 -19 -20 -20 -21 -21 -21 -22 -22 -23 -24 -25 -25 -26 -26
-8 -8 -9 -9 -10 -10 -10 -11 -11 -11 -12 -12 -12 -12 -12 -13 -13 -13 -14 -16 -17 -17 -18 -18 -18 -18 -18 -18 -19 -19 -19 -20 -21 -21 -21 -22 -22 -23 -23 -24 -25 -25 -26 -27
-8 -8 -9 -9 -10 -10 -11 -11 -11 -12 -12 -12 -12 -12 -13 -13 -13 -14 -14 -16 -17 -17 -18 -18 -18 -18 -18 -19 -19 -19 -19 -20 -21 -21 -22 -21 -22 -23 -24 -25 -25 -25 -26 -26
-8 -9 -9 -9 -10 -10 -11 -11 -11 -11 -12 -12 -12 -12 -12 -13 -13 -13 -14 -16 -17 -17 -18 -18 -18 -18 -18 -19 -19 -19 -19 -20 -21 -22 -22 -22 -22 -23 -24 -24 -25 -25 -26 -26
-8 -8 -9 -9 -10 -10 -11 -11 -11 -12 -12 -12 -12 -13 -13 -13 -14 -14 -14 -16 -17 -18 -18 -18 -18 -18 -18 -19 -19 -19 -19 -20 -21 -22 -22 -22 -22 -23 -23 -24 -25 -25 -25 -26
-8 -8 -9 -9 -10 -10 -11 -11 -11 -12 -12 -12 -12 -13 -13 -13 -14 -14 -14 -16 -18 -18 -18 -18 -18 -18 -18 -19 -19 -19 -20 -20 -21 -21 -22 -22 -22 -23 -23 -23 -24 -25 -25 -26
-8 -8 -8 -9 -9 -10 -11 -11 -12 -12 -12 -12 -12 -13 -13 -13 -13 -14 -14 -16 -18 -17 -18 -18 -18 -18 -18 -19 -19 -19 -19 -20 -21 -21 -22 -22 -22 -22 -23 -23 -24 -25 -25 -26
-8 -8 -8 -9 -9 -10 -10 -11 -11 -12 -12 -12 -13 -13 -13 -13 -13 -14 -14 -16 -17 -17 -18 -18 -18 -18 -19 -19 -19 -19 -19 -20 -20 -21 -21 -22 -22 -22 -22 -23 -24 -24 -25 -25
-8 -8 -9 -9 -9 -9 -10 -11 -11 -12 -12 -12 -13 -13 -13 -13 -13 -13 -14 -15 -17 -17 -18 -18 -18 -18 -19 -19 -19 -19 -19 -20 -20 -20 -21 -21 -22 -22 -22 -23 -23 -24 -25 -25
-8 -8 -9 -9 -9 -9 -10 -11 -11 -12 -12 -12 -13 -13 -13 -13 -13 -13 -13 -14 -17 -17 -18 -18 -18 -18 -19 -19 -19 -19 -19 -19 -19 -20 -20 -21 -21 -22 -22 -22 -22 -23 -24 -24
-8 -8 -8 -9 -9 -9 -10 -10 -11 -11 -12 -12 -12 -13 -13 -13 -13 -13 -14 -14 -17 -17 -18 -18 -18 -18 -18 -19 -19 -19 -19 -19 -19 -20 -20 -21 -21 -21 -22 -22 -22 -22 -23 -23
-8 -8 -8 -9 -9 -9 -10 -10 -11 -11 -11 -12 -12 -13 -13 -13 -13 -13 -13 -14 -16 -17 -17 -18 -18 -18 -19 -19 -19 -19 -19 -19 -19 -20 -20 -20 -21 -21 -22 -22 -22 -22 -22 -23
-8 -8 -8 -9 -9 -9 -9 -10 -10 -11 -11 -12 -12 -12 -12 -12 -12 -12 -13 -14 -14 -17 -17 -18 -18 -18 -19 -19 -19 -19 -19 -19 -19 -20 -20 -20 -20 -21 -21 -22 -22 -22 -22 -22
-8 -8 -8 -8 -9 -9 -9 -10 -10 -11 -11 -11 -12 -12 -12 -12 -12 -12 -13 -14 -14 -16 -17 -18 -18 -18 -18 -19 -19 -19 -19 -19 -19 -19 -20 -20 -20 -21 -21 -21 -22 -22 -22 -22
-8 -8 -8 -8 -9 -9 -9 -10 -10 -10 -11 -11 -12 -12 -12 -12 -12 -12 -13 -13 -14 -14 -17 -17 -18 -18 -19 -19 -19 -19 -19 -19 -19 -19 -19 -20 -20 -20 -21 -21 -21 -21 -22 -22
-8 -8 -8 -8 -9 -9 -9 -10 -10 -10 -11 -11 -12 -12 -12 -12 -12 -12 -12 -13 -13 -14 -15 -17 -17 -18 -18 -18 -18 -18 -19 -19 -19 -19 -19 -19 -20 -20 -20 -21 -21 -21 -21 -22
-8 -8 -8 -8 -9 -9 -9 -10 -10 -10 -11 -11 -11 -12 -12 -12 -12 -12 -12 -12 -13 -14 -14 -15 -17 -18 -18 -18 -19 -18 -19 -19 -19 -19 -19 -19 -19 -20 -20 -21 -21 -21 -21 -22
-9 -9 -9 -9 -9 -9 -9 -9 -10 -10 -11 -11 -11 -12 -12 -12 -11 -12 -12 -12 -12 -13 -14 -14 -15 -17 -18 -18 -19 -19 -19 -19 -19 -19 -19 -19 -20 -20 -20 -20 -21 -21 -21 -21
-9 -9 -9 -9 -9 -9 -9 -9 -10 -10 -10 -11 -11 -12 -12 -12 -11 -12 -12 -12 -12 -12 -13 -14 -14 -15 -17 -18 -18 -18 -19 -19 -19 -19 -19 -19 -19 -20 -20 -20 -21 -21 -21 -21
-9 -9 -9 -9 -9 -9 -9 -9 -10 -10 -10 -11 -11 -11 -12 -12 -12 -12 -12 -12 -12 -12 -13 -13 -14 -15 -15 -17 -18 -18 -19 -19 -19 -19 -19 -19 -19 -20 -20 -20 -21 -21 -21 -21
-9 -10 -9 -9 -9 -9 -9 -9 -9 -10 -10 -10 -11 -11 -12 -12 -12 -12 -12 -12 -12 -12 -12 -13 -13 -14 -15 -15 -16 -18 -19 -19 -19 -19 -19 -19 -19 -19 -19 -20 -20 -21 -21 -21
Height
5870 5867 5863 5859 5854 5850 5845 5840 5834 5829 5824 5820 5813 5806 5799 5790 5779 5765 5751 5735 5721 5714 5712 5706 5701 5696 5692 5687 5679 5672 5665 5657 5649 5640 5632 5624 5615 5606 5595 5585 5575 5564 5555 5547
5869 5865 5862 5857 5853 5848 5844 5838 5833 5827 5823 5818 5811 5802 5794 5784 5773 5760 5746 5730 5717 5712 5709 5704 5699 5696 5690 5684 5676 5669 5661 5653 5645 5636 5626 5617 5608 5597 5586 5574 5561 5549 5537 5526
5866 5864 5860 5856 5852 5847 5841 5836 5831 5826 5820 5813 5807 5802 5791 5781 5767 5753 5739 5724 5716 5711 5706 5702 5698 5694 5687 5680 5673 5666 5658 5649 5640 5631 5621 5612 5602 5591 5579 5565 5550 5534 5519 5506
5865 5862 5858 5854 5850 5844 5839 5834 5829 5824 5818 5810 5803 5795 5786 5775 5762 5748 5733 5721 5716 5711 5706 5701 5696 5691 5685 5678 5671 5663 5654 5645 5636 5627 5618 5607 5596 5583 5567 5549 5532 5516 5502 5491
5864 5860 5856 5852 5847 5842 5838 5832 5827 5821 5815 5808 5802 5793 5782 5770 5758 5745 5731 5720 5715 5709 5704 5699 5694 5688 5683 5675 5668 5660 5651 5642 5633 5624 5614 5602 5590 5576 5558 5540 5522 5504 5492 5480
5862 5858 5854 5850 5845 5840 5836 5832 5825 5819 5812 5805 5797 5788 5778 5769 5758 5744 5729 5717 5712 5707 5702 5696 5692 5687 5680 5673 5665 5657 5648 5639 5631 5621 5611 5600 5586 5570 5552 5533 5515 5500 5486 5475
5860 5856 5852 5847 5843 5838 5833 5828 5821 5815 5807 5803 5796 5788 5780 5768 5756 5743 5728 5714 5711 5705 5700 5693 5689 5685 5679 5671 5663 5655 5646 5637 5629 5619 5608 5596 5583 5567 5548 5530 5513 5498 5484 5472
5858 5854 5850 5845 5841 5836 5830 5825 5820 5814 5809 5803 5796 5787 5776 5765 5754 5740 5726 5713 5709 5704 5699 5693 5689 5684 5678 5670 5662 5653 5645 5636 5628 5617 5607 5595 5581 5565 5547 5530 5514 5498 5485 5473
5856 5852 5848 5844 5839 5835 5830 5825 5820 5814 5809 5801 5793 5786 5776 5764 5751 5737 5722 5711 5708 5702 5697 5693 5689 5683 5676 5669 5661 5653 5644 5635 5626 5616 5605 5594 5581 5565 5550 5533 5517 5502 5488 5477
5855 5851 5847 5843 5838 5834 5829 5824 5818 5812 5805 5798 5792 5782 5772 5761 5749 5734 5719 5709 5706 5701 5696 5691 5687 5681 5675 5667 5660 5652 5643 5634 5626 5616 5605 5593 5581 5567 5552 5536 5521 5506 5494 5483
5853 5850 5847 5842 5837 5832 5828 5822 5816 5811 5804 5796 5788 5781 5772 5761 5748 5735 5720 5708 5704 5700 5695 5690 5686 5680 5674 5667 5659 5651 5642 5634 5625 5616 5605 5594 5582 5569 5555 5540 5525 5512 5500 5490
5852 5849 5845 5841 5836 5831 5826 5821 5815 5809 5804 5796 5788 5782 5772 5760 5749 5734 5720 5707 5703 5700 5694 5690 5685 5680 5673 5665 5657 5650 5643 5635 5626 5616 5606 5595 5583 5572 5559 5544 5530 5518 5506 5495
5850 5847 5844 5841 5837 5830 5825 5819 5814 5808 5802 5795 5787 5779 5770 5760 5748 5736 5721 5707 5703 5697 5693 5689 5685 5679 5672 5665 5658 5651 5644 5636 5627 5618 5607 5597 5585 5575 5562 5549 5536 5523 5512 5500
5848 5845 5842 5839 5834 5829 5823 5818 5812 5807 5801 5794 5787 5778 5768 5758 5747 5735 5723 5708 5702 5698 5692 5689 5684 5678 5672 5665 5658 5651 5644 5637 5629 5620 5610 5599 5588 5577 5565 5553 5541 5529 5517 5504
5847 5844 5841 5837 5833 5828 5823 5817 5811 5805 5800 5793 5786 5779 5770 5760 5749 5737 5725 5710 5702 5698 5693 5689 5684 5678 5672 5666 5659 5652 5645 5639 5631 5622 5612 5602 5592 5580 5569 5558 5547 5535 5523 5510
5844 5842 5839 5836 5832 5827 5822 5816 5810 5805 5799 5792 5786 5780 5771 5762 5751 5739 5727 5714 5704 5699 5694 5689 5685 5679 5673 5667 5660 5654 5648 5641 5634 5625 5615 5605 5596 5585 5574 5563 5553 5542 5531 5519
5841 5840 5837 5834 5830 5826 5822 5816 5809 5803 5798 5792 5785 5779 5771 5763 5752 5741 5730 5717 5706 5701 5695 5690 5685 5680 5675 5669 5662 5656 5650 5644 5635 5627 5619 5609 5600 5590 5580 5570 5560 5550 5539 5529
5838 5837 5835 5832 5829 5826 5821 5814 5808 5802 5797 5791 5784 5778 5771 5763 5754 5743 5732 5721 5709 5702 5696 5692 5686 5681 5676 5671 5665 5658 5652 5646 5638 5631 5623 5614 5606 5595 5585 5576 5567 5557 5547 5538
5833 5833 5832 5830 5827 5824 5818 5814 5808 5801 5796 5790 5784 5778 5771 5764 5755 5745 5735 5724 5713 5703 5698 5692 5688 5683 5678 5673 5666 5660 5654 5648 5641 5635 5628 5620 5611 5602 5592 5582 5573 5565 5555 5546
5828 5828 5829 5826 5824 5821 5817 5812 5806 5801 5796 5790 5784 5778 5771 5765 5757 5747 5737 5726 5717 5707 5698 5694 5689 5684 5678 5674 5668 5661 5656 5650 5645 5639 5632 5625 5616 5608 5599 5590 5581 5572 5563 5553
5823 5824 5824 5823 5821 5819 5815 5810 5805 5800 5797 5789 5784 5778 5772 5765 5758 5749 5740 5731 5722 5713 5702 5696 5690 5685 5681 5676 5671 5664 5658 5653 5647 5642 5636 5629 5621 5613 5605 5597 5588 5580 5571 5561
5819 5819 5819 5819 5817 5816 5812 5808 5804 5799 5793 5787 5783 5777 5772 5766 5760 5752 5744 5735 5726 5717 5708 5699 5692 5687 5682 5677 5672 5667 5661 5655 5650 5644 5639 5632 5625 5618 5610 5602 5594 5586 5578 5570
5814 5815 5815 5815 5814 5812 5809 5806 5802 5797 5792 5786 5782 5776 5771 5766 5761 5754 5747 5739 5730 5722 5712 5704 5695 5689 5684 5678 5673 5669 5663 5657 5652 5647 5641 5635 5629 5622 5615 5608 5600 5592 5585 5578
5807 5808 5809 5809 5809 5808 5806 5802 5799 5795 5790 5785 5780 5775 5771 5766 5761 5755 5749 5742 5734 5726 5717 5708 5699 5691 5685 5679 5675 5672 5666 5661 5656 5650 5644 5638 5633 5627 5620 5613 5606 5599 5592 5584
5802 5802 5803 5804 5803 5802 5801 5799 5796 5793 5789 5784 5779 5774 5770 5766 5761 5756 5750 5745 5736 5729 5721 5713 5704 5695 5687 5681 5676 5673 5668 5663 5659 5653 5647 5641 5636 5630 5625 5619 5612 5606 5599 5591
5796 5795 5796 5798 5797 5797 5796 5795 5792 5790 5787 5782 5777 5773 5769 5765 5760 5756 5751 5746 5739 5732 5725 5717 5709 5700 5692 5685 5678 5672 5669 5665 5661 5656 5651 5644 5638 5633 5627 5622 5616 5610 5603 5596
Wind_Speed
14 16 20 23 25 25 25 24 23 24 25 28 30 33 38 44 50 57 63 63 47 19 19 22 27 24 26 31 32 34 33 32 34 37 37 38 40 42 46 51 54 56 58 57
15 17 20 23 25 25 24 24 22 23 26 29 30 36 41 47 52 59 62 54 23 16 23 26 24 23 29 31 33 34 32 34 37 38 38 40 44 48 55 57 59 62 64 61
16 18 21 23 24 25 25 25 24 24 27 31 32 35 42 48 53 60 62 47 16 18 22 25 20 23 29 32 32 33 33 37 38 38 39 43 48 53 58 57 58 59 60 57
17 19 20 23 25 25 25 25 23 24 29 32 36 41 45 51 55 61 62 39 19 23 24 24 19 24 29 31 32 32 35 38 38 39 41 46 51 58 63 63 58 57 46 42
17 19 21 23 25 25 24 25 24 26 30 30 36 42 47 51 55 59 61 35 19 23 24 25 21 25 30 30 32 33 37 37 38 39 43 48 54 60 63 62 61 47 44 37
17 20 22 24 25 24 25 24 25 27 32 32 39 45 49 49 52 58 59 30 19 22 24 24 22 26 30 31 33 35 37 37 37 39 43 49 56 62 63 59 58 46 43 34
18 21 23 24 25 25 25 27 29 32 35 34 39 43 45 48 51 56 61 31 21 23 25 20 22 26 29 31 32 35 36 36 36 40 44 49 55 60 62 59 60 46 42 35
20 21 24 25 25 26 26 27 27 30 33 32 35 43 48 50 51 55 59 33 21 24 27 20 21 26 28 30 32 35 34 34 36 39 43 49 54 60 61 59 57 47 42 41
20 22 23 24 25 26 26 26 27 28 31 34 37 42 47 51 52 55 58 36 22 24 24 20 22 26 28 29 32 33 33 33 36 39 42 47 52 58 59 58 56 56 43 40
19 20 23 24 25 26 26 27 28 30 34 36 38 44 48 51 51 56 58 37 22 24 24 18 22 27 29 29 33 33 33 33 36 39 42 46 49 54 56 57 55 53 48 38
17 19 22 24 25 27 26 27 28 28 33 37 41 43 47 50 49 56 59 41 21 23 23 18 22 26 29 30 33 32 32 34 36 39 42 45 47 50 54 54 53 51 49 40
14 17 22 24 26 27 27 27 28 28 32 36 38 39 47 49 49 55 62 41 19 24 23 18 23 26 29 30 33 31 32 34 36 39 42 45 46 47 51 53 52 51 47 45
13 17 21 23 26 28 28 27 28 28 31 34 37 41 45 49 51 54 60 42 18 22 22 18 22 26 28 31 32 30 31 33 37 40 43 45 46 44 46 52 52 50 49 47
14 18 21 25 28 30 28 28 28 28 30 32 34 40 45 50 54 55 58 45 17 23 20 18 22 25 26 30 31 30 32 34 37 41 42 45 46 44 43 49 53 52 50 50
14 17 20 23 27 29 29 28 28 28 29 31 34 36 42 48 53 53 57 51 18 23 19 19 23 25 25 30 30 30 32 35 37 40 41 43 46 46 45 46 49 51 53 51
13 15 19 22 25 28 28 29 28 27 28 29 32 33 39 46 51 52 54 53 20 22 19 19 22 24 25 30 30 28 31 34 37 39 40 42 43 45 47 46 47 49 51 54
12 14 18 21 23 27 27 29 28 27 28 28 30 32 37 43 49 52 51 55 28 23 19 19 22 24 25 30 29 27 28 33 36 38 40 42 42 42 45 46 47 48 50 51
15 15 18 20 24 26 26 29 29 27 28 28 29 31 35 41 47 50 53 50 43 21 20 20 20 23 23 28 28 26 27 30 35 37 39 42 45 45 43 44 45 46 49 51
19 19 18 20 23 25 26 27 29 28 28 28 28 30 32 38 44 48 49 50 52 31 21 18 20 23 23 27 29 27 26 28 32 35 36 38 41 46 48 46 45 45 47 49
22 21 20 21 22 24 26 25 28 28 27 27 28 29 30 35 41 46 48 51 51 47 25 20 20 21 21 24 27 28 27 26 29 32 35 37 38 41 43 47 49 49 47 47
24 23 21 21 22 22 25 23 27 28 29 27 27 28 27 32 38 43 45 49 50 49 41 22 19 20 22 22 25 28 27 27 27 29 31 34 37 38 41 45 46 47 50 50
26 25 23 21 21 22 24 23 24 27 27 27 26 27 26 28 34 40 42 45 51 48 47 38 22 20 20 22 22 24 27 27 27 27 28 31 33 36 39 41 44 46 48 47
27 25 23 22 20 21 22 23 23 25 28 27 25 25 25 25 30 35 39 42 45 50 45 46 37 23 21 21 20 23 25 27 27 27 27 29 30 33 35 38 40 43 45 46
28 27 23 22 20 20 20 22 23 23 26 26 25 25 24 23 25 30 35 39 42 43 46 45 45 37 25 21 21 22 23 26 28 29 28 28 29 30 32 34 35 38 40 43
29 27 24 21 21 20 20 20 22 22 24 27 25 24 23 21 22 25 30 36 39 42 43 46 44 44 38 25 22 22 22 22 25 27 29 30 30 30 30 31 32 34 36 38
27 28 25 20 21 21 20 19 20 21 21 25 26 23 24 20 19 22 26 30 35 39 40 42 46 46 45 42 32 22 22 22 22 24 25 27 28 30 31 31 32 33 34 36
Wind_Direction
335 340 342 344 348 348 349 345 342 341 343 344 342 341 344 342 343 342 342 337 337 347 342 340 341 345 342 341 341 339 340 337 336 338 335 332 328 328 329 326 321 317 313 307
336 337 340 344 346 345 346 347 343 342 341 342 344 345 347 346 346 345 344 340 344 348 344 344 342 342 342 342 343 341 340 339 340 340 337 335 337 336 333 328 323 317 311 304
336 336 338 342 341 342 346 348 342 341 342 344 344 346 347 350 348 347 346 342 345 349 343 341 342 341 345 344 345 343 341 343 343 340 339 342 341 339 332 326 320 317 311 304
335 335 336 339 338 342 345 347 343 341 345 348 349 350 353 351 352 350 349 344 338 344 341 340 341 343 346 346 344 344 344 345 345 341 343 344 342 340 337 333 330 326 323 317
335 333 336 335 338 342 345 347 345 341 348 348 351 352 357 354 355 353 349 341 332 339 338 343 343 345 347 348 346 346 346 348 346 344 347 347 344 343 342 342 340 338 335 328
333 334 333 334 338 340 343 345 344 347 350 350 356 357 357 355 355 356 351 339 330 338 341 345 350 349 349 349 348 348 349 350 348 348 350 347 346 349 348 350 351 349 345 340
331 334 334 336 338 342 343 344 348 352 354 358 354 353 355 354 353 355 353 341 334 341 344 352 356 351 350 348 350 349 352 352 351 352 351 351 352 353 354 357 358 358 360 354
333 335 335 339 341 345 346 348 350 351 351 350 352 355 356 353 353 357 353 348 339 348 349 356 358 353 351 350 352 353 354 355 355 356 355 357 357 358 358 2 3 3 1 6
334 337 340 343 343 346 347 347 348 347 349 350 350 353 357 355 356 357 353 349 350 350 355 355 357 356 353 353 354 355 356 359 359 358 359 359 1 1 1 3 7 10 8 14
339 343 343 345 345 347 348 347 347 348 352 351 352 351 356 357 359 359 353 350 355 349 356 357 358 358 354 356 357 358 359 1 1 0 2 1 2 3 3 6 9 12 14 18
343 348 349 348 348 347 350 348 346 348 352 351 353 355 355 359 0 0 356 353 354 349 355 2 1 360 357 358 359 2 1 2 2 1 1 2 2 3 7 9 11 11 15 16
340 352 354 352 351 349 351 350 346 346 351 352 353 354 358 360 1 360 358 356 353 355 359 5 3 1 360 360 1 5 4 4 2 2 1 3 2 4 10 13 13 14 13 16
335 346 351 354 353 352 353 351 348 347 349 354 353 353 358 0 2 4 0 0 1 360 6 9 8 5 3 1 2 8 7 6 3 3 4 5 4 4 9 16 16 15 17 19
327 339 346 350 350 355 354 353 349 349 351 353 353 355 358 0 3 6 3 2 9 7 10 13 10 8 5 3 4 9 9 8 5 8 8 8 7 6 8 13 15 17 17 21
318 330 338 344 347 351 355 354 351 351 352 351 353 357 359 2 4 8 6 2 16 8 12 14 12 10 8 5 7 11 13 11 10 12 13 13 14 13 13 14 15 18 21 22
305 323 333 338 343 347 353 355 353 352 353 350 354 359 0 3 4 9 11 11 14 11 16 14 12 10 11 8 9 12 16 16 16 17 18 17 18 19 21 22 23 23 25 28
286 308 326 335 339 344 352 356 355 352 353 351 353 360 2 5 4 8 10 13 10 13 16 18 14 12 12 10 10 12 17 21 21 21 22 22 22 23 26 29 29 28 29 32
269 289 310 327 336 342 348 356 357 353 355 353 354 360 4 5 6 9 8 16 15 9 14 17 14 14 16 14 12 14 18 24 25 24 26 29 30 29 28 30 31 31 30 32
262 277 295 314 328 337 343 353 357 355 355 352 354 357 4 4 8 9 11 18 20 13 12 13 13 15 17 16 15 16 17 24 28 27 27 30 32 34 34 32 31 32 31 34
263 271 284 301 317 332 338 348 355 359 354 352 353 354 4 3 10 12 15 17 19 21 13 11 13 13 16 18 19 18 18 23 27 28 29 30 33 32 34 37 37 35 34 34
264 270 280 293 308 323 332 340 349 359 356 354 353 351 2 2 9 14 17 19 22 21 25 13 9 12 14 15 21 22 21 21 24 26 28 30 32 35 35 35 35 35 36 35
264 272 279 288 301 315 328 332 344 353 355 353 353 349 356 1 7 16 15 21 22 26 28 27 10 7 11 14 17 22 25 24 22 21 25 26 29 31 32 33 34 35 34 34
263 271 279 284 294 307 320 326 334 347 356 352 350 347 348 357 3 13 14 20 22 25 28 28 29 11 5 8 9 18 22 25 26 23 22 23 23 24 27 29 30 32 33 34
259 268 276 281 287 296 310 321 326 338 352 353 348 345 345 350 358 7 13 17 23 22 27 30 32 31 15 3 7 9 17 20 22 24 25 22 20 19 20 22 25 28 30 31
258 265 269 278 285 289 298 314 321 327 343 350 346 345 343 343 349 359 9 13 23 23 22 27 30 33 31 13 2 7 10 15 18 22 25 25 22 19 17 17 19 23 26 30
255 260 266 272 277 283 287 305 314 319 333 345 346 344 341 342 339 353 4 12 18 24 23 25 28 31 35 34 23 3 5 9 11 14 19 26 28 26 22 20 19 18 21 24